Location: Cuguron
(43.0994°N, 0.5363°E)
Time: 04:52:45
(UTC+00:00)

Cosmos 1461 - Pass Details

Date: 15 May 2026
Orbit: 422 x 476 km, 65.0° (Epoch: 6 June)

Event Time Altitude Azimuth Distance (km) Brightness Sun altitude
Rises 19:42:28 0° 182° (S) 2,527 5.9 -5.2°
Reaches altitude 10° 19:44:53 10° 168° (SSE) 1,654 4.9 -5.6°
Maximum altitude 19:47:52 23° 114° (ESE) 1,052 3.7 -6.1°
Drops below altitude 10° 19:50:51 10° 60° (ENE) 1,658 5.0 -6.5°
Sets 19:53:16 0° 46° (NE) 2,536 6.1 -6.9°
